Starlink 2432

operational
NORAD ID: 47840 Int'l Des: 2021-018 Owner: SPXS Country: US Constellation: starlink
LEOCIRCULARSTARLINK_TYPE

About Starlink 2432

Description loading...

Live Position

Loading 3D Globe...

Upcoming Passes

Altitude History

Altitude vs Time

uPlot chart will show altitude changes over time

Two-Line Element Set

1 47840U 21018BF 26062.57292482 -.00000531 00000-0 -16757-4 0 9991
2 47840 53.0540 259.0759 0001315 90.0563 270.0577 15.06390961275958
Epoch: Mar 3, 2026 • Age: 21 hours

Current Status

Altitude 559.6 km
Velocity 7.58 km/s
Sub-Earth Point -36.36°S, 7.43°W
Launch Date Mar 11, 2021
Age 4.9 years
Type internet

Technical Details

Classification Payload
Mass 260.00 kg
Dry Mass 248.00 kg
Total Mass 260.00 kg
Length 0.20 m
Diameter 2.80 m
Span 9.00 m
Shape Box + pan
Manufacturer SPXS
Bus Type Starlink
Phase Status In Orbit
Owner/State SPXS/US

Large Constellations

Loading constellations...